User: anonymous   Login
Location: Kelshall
(52.0000°N, 0.0500°W)
Time: 04:23:40
(UTC+00:00)
Language:

Meteor 1-15 Rocket - Orbit

View from above orbital plane
View from above orbital plane
View from above satellite
View from above satellite

Ground track
Ground track

The orbit data is extracted from the following two-line orbital elements,

1 06660U 73034B   20337.40995867  .00000020  00000-0  40361-5 0  9999
2 06660  81.2323 221.7136 0047535 136.5997 223.8930 14.05854030435756
Epoch (UTC): 02 December 2020 09:50:20
Eccentricity: 0.0047535
inclination: 81.2323°
perigee height: 839 km
apogee height: 908 km
right ascension of ascending node: 221.7136°
argument of perigee: 136.5997°
revolutions per day: 14.05854030
mean anomaly at epoch: 223.8930°
orbit number at epoch: 43575

The dashed part of the orbit path shows where the satellite is in the earth's shadow,  

DLR